| time (UTC) | temp F | wind direction | speed MPH | gust MPH | rain 1hr in | rain 24hr in | rain mn in | humidity % | barometer mb |
| 20260507113038 | 43 | 22 | 2.0 | 3.0 | 0.00 | 0.00 | 0.00 | 49 | 1021.6 |
| 20260507111540 | 44 | 28 | 2.0 | 4.0 | 0.00 | 0.00 | 0.00 | 50 | 1021.6 |
| 20260507110034 | 44 | 77 | 3.0 | 5.0 | 0.00 | 0.00 | 0.00 | 51 | 1021.6 |
| 20260507104533 | 43 | 76 | 3.0 | 4.0 | 0.00 | 0.00 | 0.00 | 51 | 1021.5 |
| 20260507103033 | 43 | 63 | 3.0 | 5.0 | 0.00 | 0.00 | 0.00 | 51 | 1021.4 |
| 20260507101530 | 43 | 86 | 3.0 | 4.0 | 0.00 | 0.00 | 0.00 | 50 | 1021.2 |
| 20260507100032 | 44 | 87 | 3.0 | 6.0 | 0.00 | 0.00 | 0.00 | 49 | 1021.3 |
| 20260507094527 | 45 | 61 | 4.0 | 5.0 | 0.00 | 0.00 | 0.00 | 49 | 1021.3 |
| 20260507093034 | 44 | 40 | 4.0 | 5.0 | 0.00 | 0.00 | 0.00 | 49 | 1021.4 |
| 20260507091527 | 44 | 40 | 4.0 | 5.0 | 0.00 | 0.00 | 0.00 | 49 | 1021.6 |
| 20260507090024 | 44 | 40 | 3.0 | 5.0 | 0.00 | 0.00 | 0.00 | 49 | 1021.7 |
| 20260507084522 | 44 | 42 | 4.0 | 8.0 | 0.00 | 0.00 | 0.00 | 49 | 1021.8 |
| 20260507083026 | 44 | 11 | 5.0 | 8.0 | 0.00 | 0.00 | 0.00 | 48 | 1022.1 |
| 20260507081528 | 45 | 19 | 5.0 | 7.0 | 0.00 | 0.00 | 0.00 | 48 | 1022.2 |
| 20260507080019 | 45 | 14 | 6.0 | 9.0 | 0.00 | 0.00 | 0.00 | 47 | 1022.2 |
| 20260507074511 | 46 | 28 | 7.0 | 11.0 | 0.00 | 0.00 | 0.00 | 46 | 1022.2 |
| 20260507073008 | 47 | 31 | 9.0 | 12.0 | 0.00 | 0.00 | 0.00 | 45 | 1021.9 |
| 20260507071505 | 47 | 34 | 11.0 | 18.0 | 0.00 | 0.00 | 0.00 | 44 | 1021.5 |
| 20260507070001 | 48 | 55 | 16.0 | 22.0 | 0.00 | 0.00 | 0.00 | 44 | 1021.6 |
| 20260507064613 | 49 | 30 | 16.0 | 21.0 | 0.00 | 0.00 | 0.00 | 44 | 1021.4 |
| 20260507063056 | 49 | 61 | 14.0 | 21.0 | 0.00 | 0.00 | 0.00 | 44 | 1021.4 |
| 20260507061551 | 50 | 59 | 12.0 | 21.0 | 0.00 | 0.00 | 0.00 | 43 | 1021.2 |
| 20260507060050 | 50 | 61 | 14.0 | 23.0 | 0.00 | 0.00 | 0.00 | 42 | 1020.8 |
| 20260507054545 | 51 | 33 | 17.0 | 25.0 | 0.00 | 0.00 | 0.00 | 42 | 1020.6 |
| 20260507053040 | 52 | 64 | 17.0 | 24.0 | 0.00 | 0.00 | 0.00 | 42 | 1020.6 |
| 20260507051539 | 52 | 75 | 17.0 | 22.0 | 0.00 | 0.00 | 0.00 | 42 | 1020.6 |
| 20260507050039 | 52 | 78 | 15.0 | 22.0 | 0.00 | 0.00 | 0.00 | 42 | 1020.4 |
| 20260507044534 | 53 | 61 | 13.0 | 20.0 | 0.00 | 0.00 | 0.00 | 42 | 1020.6 |
| 20260507043030 | 53 | 57 | 14.0 | 20.0 | 0.00 | 0.00 | 0.00 | 41 | 1020.3 |
| 20260507041542 | 54 | 79 | 13.0 | 24.0 | 0.00 | 0.00 | 0.00 | 40 | 1020.1 |
| 20260507040024 | 55 | 71 | 13.0 | 21.0 | 0.00 | 0.00 | 0.00 | 39 | 1019.8 |
| 20260507034522 | 55 | 74 | 15.0 | 20.0 | 0.00 | 0.00 | 0.00 | 38 | 1019.5 |
| 20260507033021 | 56 | 70 | 11.0 | 19.0 | 0.00 | 0.00 | 0.00 | 38 | 1019.1 |
| 20260507031519 | 55 | 80 | 12.0 | 16.0 | 0.00 | 0.00 | 0.00 | 39 | 1018.7 |
| 20260507030019 | 55 | 78 | 9.0 | 12.0 | 0.00 | 0.00 | 0.00 | 38 | 1018.6 |
| 20260507024514 | 56 | 91 | 9.0 | 13.0 | 0.00 | 0.00 | 0.00 | 38 | 1017.9 |
| 20260507023013 | 56 | 94 | 10.0 | 13.0 | 0.00 | 0.00 | 0.00 | 37 | 1017.7 |
| 20260507021513 | 56 | 84 | 8.0 | 12.0 | 0.00 | 0.00 | 0.00 | 36 | 1017.3 |
| 20260507020013 | 57 | 80 | 10.0 | 15.0 | 0.00 | 0.00 | 0.00 | 35 | 1016.9 |
| 20260507014520 | 58 | 85 | 12.0 | 17.0 | 0.00 | 0.00 | 0.00 | 34 | 1016.7 |
| 20260507013029 | 59 | 90 | 11.0 | 21.0 | 0.00 | 0.00 | 0.00 | 33 | 1016.3 |
| 20260507011521 | 60 | 96 | 15.0 | 26.0 | 0.00 | 0.00 | 0.00 | 32 | 1016.1 |
| 20260507010010 | 61 | 91 | 18.0 | 23.0 | 0.00 | 0.00 | 0.00 | 31 | 1015.8 |
| 20260507004507 | 62 | 95 | 14.0 | 21.0 | 0.00 | 0.00 | 0.00 | 30 | 1015.7 |
| 20260507003006 | 62 | 86 | 16.0 | 26.0 | 0.00 | 0.00 | 0.00 | 30 | 1015.6 |
| 20260507001508 | 63 | 80 | 16.0 | 24.0 | 0.00 | 0.00 | 0.00 | 29 | 1015.5 |
| 20260507000019 | 63 | 91 | 18.0 | 25.0 | 0.00 | 0.00 | 0.00 | 29 | 1015.4 |
| 20260506234505 | 64 | 83 | 17.0 | 23.0 | 0.00 | 0.00 | 0.00 | 28 | 1015.3 |
| 20260506233005 | 64 | 76 | 16.0 | 22.0 | 0.00 | 0.00 | 0.00 | 28 | 1015.4 |
| 20260506231504 | 64 | 88 | 16.0 | 22.0 | 0.00 | 0.00 | 0.00 | 28 | 1015.2 |
| 20260506230004 | 64 | 117 | 15.0 | 24.0 | 0.00 | 0.00 | 0.00 | 27 | 1015.2 |
| 20260506224503 | 64 | 94 | 13.0 | 22.0 | 0.00 | 0.00 | 0.00 | 27 | 1015.0 |
| 20260506223004 | 64 | 78 | 14.0 | 24.0 | 0.00 | 0.00 | 0.00 | 27 | 1015.0 |
| 20260506221502 | 64 | 90 | 8.0 | 18.0 | 0.00 | 0.00 | 0.00 | 27 | 1015.3 |
| 20260506220100 | 64 | 61 | 12.0 | 20.0 | 0.00 | 0.00 | 0.00 | 28 | 1015.2 |
| 20260506214609 | 63 | 86 | 8.0 | 20.0 | 0.00 | 0.00 | 0.00 | 29 | 1015.1 |
| 20260506213057 | 64 | 49 | 13.0 | 20.0 | 0.00 | 0.00 | 0.00 | 29 | 1015.2 |
| 20260506211557 | 63 | 94 | 15.0 | 21.0 | 0.00 | 0.00 | 0.00 | 29 | 1015.6 |
| 20260506204554 | 63 | 28 | 11.0 | 17.0 | 0.00 | 0.00 | 0.00 | 30 | 1015.9 |
| 20260506203059 | 62 | 63 | 8.0 | 18.0 | 0.00 | 0.00 | 0.00 | 31 | 1016.0 |
| 20260506201551 | 61 | 47 | 7.0 | 15.0 | 0.00 | 0.00 | 0.00 | 32 | 1016.1 |
| 20260506200125 | 61 | 117 | 10.0 | 15.0 | 0.00 | 0.00 | 0.00 | 33 | 1016.0 |
| 20260506194547 | 61 | 59 | 9.0 | 16.0 | 0.00 | 0.00 | 0.00 | 33 | 1016.1 |
| 20260506193050 | 60 | 105 | 11.0 | 19.0 | 0.00 | 0.00 | 0.00 | 34 | 1016.0 |
| 20260506191547 | 60 | 69 | 13.0 | 19.0 | 0.00 | 0.00 | 0.00 | 35 | 1016.1 |
| 20260506190045 | 60 | 87 | 11.0 | 18.0 | 0.00 | 0.00 | 0.00 | 35 | 1016.3 |
| 20260506184541 | 58 | 67 | 9.0 | 20.0 | 0.00 | 0.00 | 0.00 | 37 | 1016.5 |
| 20260506183040 | 57 | 114 | 9.0 | 16.0 | 0.00 | 0.00 | 0.00 | 38 | 1016.6 |
| 20260506181539 | 57 | 84 | 12.0 | 17.0 | 0.00 | 0.00 | 0.00 | 39 | 1016.8 |
| 20260506180046 | 56 | 113 | 4.0 | 20.0 | 0.00 | 0.00 | 0.00 | 41 | 1017.0 |
| 20260506174533 | 55 | 74 | 11.0 | 18.0 | 0.00 | 0.00 | 0.00 | 42 | 1017.4 |
| 20260506173031 | 54 | 147 | 10.0 | 18.0 | 0.00 | 0.00 | 0.00 | 43 | 1017.3 |
| 20260506171545 | 53 | 111 | 6.0 | 18.0 | 0.00 | 0.00 | 0.00 | 43 | 1017.2 |
| 20260506170028 | 53 | 76 | 12.0 | 21.0 | 0.00 | 0.00 | 0.00 | 44 | 1017.5 |
| 20260506164526 | 53 | 78 | 13.0 | 20.0 | 0.00 | 0.00 | 0.00 | 45 | 1017.0 |
| 20260506163027 | 51 | 105 | 13.0 | 21.0 | 0.00 | 0.00 | 0.00 | 46 | 1016.9 |
| 20260506161534 | 50 | 89 | 16.0 | 22.0 | 0.00 | 0.00 | 0.00 | 48 | 1016.8 |
| 20260506160021 | 50 | 92 | 16.0 | 26.0 | 0.00 | 0.00 | 0.00 | 48 | 1016.8 |
| 20260506154518 | 49 | 108 | 15.0 | 27.0 | 0.00 | 0.00 | 0.00 | 47 | 1016.7 |
| 20260506153016 | 49 | 80 | 16.0 | 23.0 | 0.00 | 0.00 | 0.00 | 49 | 1016.8 |
| 20260506151515 | 48 | 85 | 17.0 | 22.0 | 0.00 | 0.00 | 0.00 | 49 | 1016.9 |
| 20260506150020 | 48 | 86 | 16.0 | 25.0 | 0.00 | 0.00 | 0.00 | 48 | 1016.7 |
| 20260506144514 | 47 | 41 | 18.0 | 25.0 | 0.00 | 0.00 | 0.00 | 50 | 1016.7 |
| 20260506143013 | 47 | 62 | 18.0 | 22.0 | 0.00 | 0.00 | 0.00 | 49 | 1016.7 |
| 20260506141511 | 46 | 74 | 14.0 | 21.0 | 0.00 | 0.00 | 0.00 | 50 | 1016.4 |
| 20260506140011 | 46 | 69 | 16.0 | 21.0 | 0.00 | 0.00 | 0.00 | 50 | 1016.1 |
| 20260506134520 | 45 | 81 | 17.0 | 25.0 | 0.00 | 0.00 | 0.00 | 51 | 1016.1 |
| 20260506133006 | 45 | 66 | 16.0 | 24.0 | 0.00 | 0.00 | 0.00 | 50 | 1015.6 |
| 20260506131504 | 44 | 71 | 18.0 | 25.0 | 0.00 | 0.00 | 0.00 | 50 | 1015.3 |
| 20260506130003 | 43 | 65 | 15.0 | 24.0 | 0.00 | 0.00 | 0.00 | 51 | 1015.2 |
| 20260506124605 | 43 | 80 | 18.0 | 24.0 | 0.00 | 0.00 | 0.00 | 53 | 1015.1 |
| 20260506123058 | 43 | 109 | 17.0 | 21.0 | 0.00 | 0.00 | 0.00 | 53 | 1015.0 |
| 20260506121606 | 43 | 90 | 18.0 | 26.0 | 0.00 | 0.00 | 0.00 | 54 | 1015.1 |
| 20260506120055 | 43 | 49 | 14.0 | 22.0 | 0.00 | 0.00 | 0.00 | 55 | 1015.1 |
| 20260506114555 | 43 | 75 | 15.0 | 22.0 | 0.00 | 0.00 | 0.00 | 56 | 1014.9 |